Time,TemperatureF,DewpointF,PressureIn,WindDirection,WindDirectionDegrees,WindSpeedMPH,WindSpeedGustMPH,Humidity,HourlyPrecipIn,Conditions,Clouds,dailyrainin,SoftwareType,DateUTC
2013-04-19 00:01:00,21.0,8.0,30.36,WNW,302,8.0,23.0,56,0.00,,,0.00,,2013-04-19 06:01:00,
2013-04-19 00:11:00,21.0,8.0,30.36,WNW,302,8.0,23.0,56,0.00,,,0.00,,2013-04-19 06:11:00,
2013-04-19 00:22:00,21.0,7.0,30.36,WNW,300,14.0,26.0,55,0.00,,,0.00,,2013-04-19 06:22:00,
2013-04-19 00:32:00,22.0,8.0,30.34,WNW,284,16.0,34.0,55,0.00,,,0.00,,2013-04-19 06:32:00,
2013-04-19 00:42:00,22.0,8.0,30.34,WNW,284,16.0,34.0,55,0.00,,,0.00,,2013-04-19 06:42:00,
2013-04-19 00:53:00,22.0,8.0,30.33,WNW,300,16.0,35.0,55,0.00,,,0.00,,2013-04-19 06:53:00,
2013-04-19 01:02:00,22.0,8.0,30.34,West,263,22.0,39.0,55,0.00,,,0.00,,2013-04-19 07:02:00,
2013-04-19 01:12:00,22.0,8.0,30.34,West,263,22.0,39.0,55,0.00,,,0.00,,2013-04-19 07:12:00,
2013-04-19 01:21:00,22.0,9.0,30.33,NNW,343,12.0,32.0,56,0.00,,,0.00,,2013-04-19 07:21:00,
2013-04-19 01:32:00,23.0,9.0,30.32,NW,307,18.0,32.0,55,0.00,,,0.00,,2013-04-19 07:32:00,
2013-04-19 01:42:00,23.0,9.0,30.32,NW,307,18.0,32.0,55,0.00,,,0.00,,2013-04-19 07:42:00,
2013-04-19 01:52:00,23.0,9.0,30.32,West,262,17.0,39.0,55,0.00,,,0.00,,2013-04-19 07:52:00,
2013-04-19 02:02:00,23.0,9.0,30.33,West,264,15.0,38.0,54,0.00,,,0.00,,2013-04-19 08:02:00,
2013-04-19 02:12:00,23.0,9.0,30.33,West,264,15.0,38.0,54,0.00,,,0.00,,2013-04-19 08:12:00,
2013-04-19 02:21:00,23.0,9.0,30.33,WNW,293,21.0,31.0,54,0.00,,,0.00,,2013-04-19 08:21:00,
2013-04-19 02:32:00,23.0,9.0,30.32,WNW,295,17.0,29.0,55,0.00,,,0.00,,2013-04-19 08:32:00,
2013-04-19 02:42:00,23.0,9.0,30.32,WNW,295,17.0,29.0,55,0.00,,,0.00,,2013-04-19 08:42:00,
2013-04-19 02:52:00,23.0,9.0,30.32,WNW,284,15.0,29.0,55,0.00,,,0.00,,2013-04-19 08:52:00,
2013-04-19 03:01:00,23.0,9.0,30.32,NW,309,11.0,26.0,55,0.00,,,0.00,,2013-04-19 09:01:00,
2013-04-19 03:11:00,23.0,9.0,30.32,NW,309,11.0,26.0,55,0.00,,,0.00,,2013-04-19 09:11:00,
2013-04-19 03:21:00,23.0,9.0,30.30,WNW,291,7.0,28.0,55,0.00,,,0.00,,2013-04-19 09:21:00,
2013-04-19 03:32:00,24.0,10.0,30.29,NW,318,13.0,32.0,54,0.00,,,0.00,,2013-04-19 09:32:00,
2013-04-19 03:42:00,24.0,10.0,30.29,NW,318,13.0,32.0,54,0.00,,,0.00,,2013-04-19 09:42:00,
2013-04-19 03:52:00,24.0,10.0,30.29,WNW,302,11.0,29.0,54,0.00,,,0.00,,2013-04-19 09:52:00,
2013-04-19 04:02:00,24.0,9.0,30.28,WNW,300,16.0,40.0,53,0.00,,,0.00,,2013-04-19 10:02:00,
2013-04-19 04:13:00,24.0,9.0,30.29,WNW,301,13.0,36.0,53,0.00,,,0.00,,2013-04-19 10:13:00,
2013-04-19 04:23:00,24.0,9.0,30.29,WNW,301,13.0,36.0,53,0.00,,,0.00,,2013-04-19 10:23:00,
2013-04-19 04:33:00,24.0,10.0,30.29,NW,318,15.0,34.0,54,0.00,,,0.00,,2013-04-19 10:33:00,
2013-04-19 04:42:00,24.0,10.0,30.29,NW,318,15.0,34.0,54,0.00,,,0.00,,2013-04-19 10:42:00,
2013-04-19 04:52:00,24.0,10.0,30.29,WNW,290,18.0,40.0,54,0.00,,,0.00,,2013-04-19 10:52:00,
2013-04-19 05:02:00,24.0,10.0,30.28,NW,319,13.0,31.0,55,0.00,,,0.00,,2013-04-19 11:02:00,
2013-04-19 05:11:00,24.0,10.0,30.28,NW,319,13.0,31.0,55,0.00,,,0.00,,2013-04-19 11:11:00,
2013-04-19 05:22:00,23.0,10.0,30.28,WNW,290,12.0,32.0,56,0.00,,,0.00,,2013-04-19 11:22:00,
2013-04-19 05:32:00,24.0,10.0,30.29,North,360,11.0,29.0,55,0.00,,,0.00,,2013-04-19 11:32:00,
2013-04-19 05:42:00,24.0,10.0,30.29,North,360,11.0,29.0,55,0.00,,,0.00,,2013-04-19 11:42:00,
2013-04-19 05:52:00,23.0,10.0,30.27,NW,315,9.0,24.0,56,0.00,,,0.00,,2013-04-19 11:52:00,
2013-04-19 06:02:00,24.0,11.0,30.27,WNW,302,13.0,25.0,56,0.00,,,0.00,,2013-04-19 12:02:00,
2013-04-19 06:12:00,24.0,11.0,30.27,WNW,302,13.0,25.0,56,0.00,,,0.00,,2013-04-19 12:12:00,
2013-04-19 06:22:00,24.0,10.0,30.26,NNW,341,9.0,22.0,54,0.00,,,0.00,,2013-04-19 12:22:00,
2013-04-19 06:32:00,24.0,10.0,30.24,NNW,330,9.0,27.0,54,0.00,,,0.00,,2013-04-19 12:32:00,
2013-04-19 06:42:00,24.0,10.0,30.24,NNW,330,9.0,27.0,54,0.00,,,0.00,,2013-04-19 12:42:00,
2013-04-19 06:53:00,25.0,9.0,30.24,WNW,300,13.0,45.0,51,0.00,,,0.00,,2013-04-19 12:53:00,
2013-04-19 07:01:00,25.0,9.0,30.25,NW,311,17.0,31.0,50,0.00,,,0.00,,2013-04-19 13:01:00,
2013-04-19 07:11:00,25.0,9.0,30.25,NW,311,17.0,31.0,50,0.00,,,0.00,,2013-04-19 13:11:00,
2013-04-19 07:21:00,25.0,10.0,30.25,North,6,14.0,25.0,52,0.00,,,0.00,,2013-04-19 13:21:00,
2013-04-19 07:32:00,26.0,10.0,30.25,WNW,299,13.0,24.0,51,0.00,,,0.00,,2013-04-19 13:32:00,
2013-04-19 07:42:00,26.0,10.0,30.25,WNW,299,13.0,24.0,51,0.00,,,0.00,,2013-04-19 13:42:00,
2013-04-19 07:52:00,26.0,10.0,30.25,WNW,293,18.0,41.0,50,0.00,,,0.00,,2013-04-19 13:52:00,
2013-04-19 08:01:00,27.0,10.0,30.24,WNW,302,16.0,34.0,49,0.00,,,0.00,,2013-04-19 14:01:00,
2013-04-19 08:11:00,27.0,10.0,30.24,WNW,302,16.0,34.0,49,0.00,,,0.00,,2013-04-19 14:11:00,
2013-04-19 08:22:00,27.0,10.0,30.24,NW,319,21.0,31.0,48,0.00,,,0.00,,2013-04-19 14:22:00,
2013-04-19 08:32:00,28.0,11.0,30.22,WNW,286,10.0,39.0,48,0.00,,,0.00,,2013-04-19 14:32:00,
2013-04-19 08:42:00,28.0,11.0,30.22,WNW,286,10.0,39.0,48,0.00,,,0.00,,2013-04-19 14:42:00,
2013-04-19 08:52:00,29.0,11.0,30.22,WNW,284,9.0,32.0,47,0.00,,,0.00,,2013-04-19 14:52:00,
2013-04-19 09:01:00,29.0,11.0,30.23,NW,317,9.0,41.0,46,0.00,,,0.00,,2013-04-19 15:01:00,
2013-04-19 09:12:00,29.0,11.0,30.23,NW,317,9.0,41.0,46,0.00,,,0.00,,2013-04-19 15:12:00,
2013-04-19 09:21:00,29.0,11.0,30.22,WNW,288,8.0,31.0,46,0.00,,,0.00,,2013-04-19 15:21:00,
2013-04-19 09:33:00,29.0,11.0,30.22,WNW,290,9.0,20.0,46,0.00,,,0.00,,2013-04-19 15:33:00,
2013-04-19 09:43:00,29.0,11.0,30.22,WNW,290,9.0,20.0,46,0.00,,,0.00,,2013-04-19 15:43:00,
2013-04-19 09:52:00,29.0,11.0,30.22,NNW,330,13.0,39.0,46,0.00,,,0.00,,2013-04-19 15:52:00,
2013-04-19 10:03:00,29.0,11.0,30.21,WNW,285,8.0,36.0,47,0.00,,,0.00,,2013-04-19 16:03:00,
2013-04-19 10:13:00,29.0,11.0,30.21,WNW,285,8.0,36.0,47,0.00,,,0.00,,2013-04-19 16:13:00,
2013-04-19 10:23:00,30.0,11.0,30.21,WNW,302,16.0,30.0,45,0.00,,,0.00,,2013-04-19 16:23:00,
2013-04-19 10:32:00,31.0,12.0,30.21,WNW,285,20.0,34.0,44,0.00,,,0.00,,2013-04-19 16:32:00,
2013-04-19 10:42:00,31.0,12.0,30.21,WNW,285,20.0,34.0,44,0.00,,,0.00,,2013-04-19 16:42:00,
2013-04-19 10:53:00,31.0,11.0,30.21,WNW,300,15.0,36.0,42,0.00,,,0.00,,2013-04-19 16:53:00,
2013-04-19 11:02:00,31.0,11.0,30.21,WNW,287,16.0,31.0,42,0.00,,,0.00,,2013-04-19 17:02:00,
2013-04-19 11:12:00,31.0,11.0,30.21,WNW,287,16.0,31.0,42,0.00,,,0.00,,2013-04-19 17:12:00,
2013-04-19 11:21:00,32.0,12.0,30.21,WNW,299,8.0,30.0,42,0.00,,,0.00,,2013-04-19 17:21:00,
2013-04-19 11:33:00,32.0,11.0,30.20,WNW,295,13.0,41.0,41,0.00,,,0.00,,2013-04-19 17:33:00,
2013-04-19 11:42:00,32.0,11.0,30.20,WNW,295,13.0,41.0,41,0.00,,,0.00,,2013-04-19 17:42:00,
2013-04-19 11:52:00,32.0,12.0,30.19,WNW,290,15.0,28.0,42,0.00,,,0.00,,2013-04-19 17:52:00,
2013-04-19 12:01:00,33.0,11.0,30.19,NW,304,17.0,28.0,40,0.00,,,0.00,,2013-04-19 18:01:00,
2013-04-19 12:13:00,33.0,11.0,30.19,NW,304,17.0,28.0,40,0.00,,,0.00,,2013-04-19 18:13:00,
2013-04-19 12:23:00,33.0,12.0,30.18,WSW,245,9.0,26.0,41,0.00,,,0.00,,2013-04-19 18:23:00,
2013-04-19 12:33:00,33.0,11.0,30.18,West,276,12.0,33.0,40,0.00,,,0.00,,2013-04-19 18:33:00,
2013-04-19 12:43:00,33.0,11.0,30.18,West,276,12.0,33.0,40,0.00,,,0.00,,2013-04-19 18:43:00,
2013-04-19 12:52:00,32.0,12.0,30.17,NW,325,15.0,28.0,42,0.00,,,0.00,,2013-04-19 18:52:00,
2013-04-19 13:01:00,33.0,12.0,30.17,WNW,290,17.0,28.0,41,0.00,,,0.00,,2013-04-19 19:01:00,
2013-04-19 13:11:00,33.0,12.0,30.17,WNW,290,17.0,28.0,41,0.00,,,0.00,,2013-04-19 19:11:00,
2013-04-19 13:21:00,34.0,13.0,30.16,West,278,20.0,37.0,41,0.00,,,0.00,,2013-04-19 19:21:00,
2013-04-19 13:32:00,34.0,14.0,30.15,NW,315,10.0,38.0,43,0.00,,,0.00,,2013-04-19 19:32:00,
2013-04-19 13:42:00,34.0,14.0,30.15,NW,315,10.0,38.0,43,0.00,,,0.00,,2013-04-19 19:42:00,
2013-04-19 13:52:00,34.0,13.0,30.15,WNW,283,12.0,29.0,42,0.00,,,0.00,,2013-04-19 19:52:00,
2013-04-19 14:02:00,34.0,14.0,30.14,North,353,5.0,18.0,43,0.00,,,0.00,,2013-04-19 20:02:00,
2013-04-19 14:11:00,34.0,14.0,30.14,North,353,5.0,18.0,43,0.00,,,0.00,,2013-04-19 20:11:00,
2013-04-19 14:22:00,34.0,15.0,30.13,WSW,255,1.0,28.0,45,0.00,,,0.00,,2013-04-19 20:22:00,
2013-04-19 14:32:00,35.0,15.0,30.13,West,277,6.0,23.0,43,0.00,,,0.00,,2013-04-19 20:32:00,
2013-04-19 14:42:00,35.0,15.0,30.13,West,277,6.0,23.0,43,0.00,,,0.00,,2013-04-19 20:42:00,
2013-04-19 14:52:00,35.0,15.0,30.13,West,271,3.0,21.0,44,0.00,,,0.00,,2013-04-19 20:52:00,
2013-04-19 15:01:00,36.0,17.0,30.12,WNW,287,3.0,21.0,45,0.00,,,0.00,,2013-04-19 21:01:00,
2013-04-19 15:11:00,36.0,15.0,30.12,WNW,290,6.0,16.0,42,0.00,,,0.00,,2013-04-19 21:11:00,
2013-04-19 15:21:00,36.0,15.0,30.12,WNW,290,6.0,16.0,42,0.00,,,0.00,,2013-04-19 21:21:00,
2013-04-19 15:32:00,36.0,15.0,30.11,NE,56,1.0,15.0,42,0.00,,,0.00,,2013-04-19 21:32:00,
2013-04-19 15:42:00,36.0,15.0,30.11,NE,56,1.0,15.0,42,0.00,,,0.00,,2013-04-19 21:42:00,
2013-04-19 15:53:00,36.0,15.0,30.11,WNW,285,3.0,15.0,42,0.00,,,0.00,,2013-04-19 21:53:00,
2013-04-19 16:02:00,36.0,15.0,30.10,NW,322,4.0,29.0,42,0.00,,,0.00,,2013-04-19 22:02:00,
2013-04-19 16:12:00,36.0,15.0,30.10,NW,322,4.0,29.0,42,0.00,,,0.00,,2013-04-19 22:12:00,
2013-04-19 16:22:00,37.0,16.0,30.09,WNW,283,8.0,18.0,42,0.00,,,0.00,,2013-04-19 22:22:00,
2013-04-19 16:33:00,37.0,16.0,30.08,NW,306,11.0,21.0,42,0.00,,,0.00,,2013-04-19 22:33:00,
2013-04-19 16:42:00,37.0,16.0,30.08,NW,306,11.0,21.0,42,0.00,,,0.00,,2013-04-19 22:42:00,
2013-04-19 16:52:00,36.0,16.0,30.08,NNW,338,6.0,19.0,43,0.00,,,0.00,,2013-04-19 22:52:00,
2013-04-19 17:02:00,36.0,16.0,30.07,WNW,300,14.0,23.0,43,0.00,,,0.00,,2013-04-19 23:02:00,
2013-04-19 17:11:00,36.0,16.0,30.07,WNW,300,14.0,23.0,43,0.00,,,0.00,,2013-04-19 23:11:00,
2013-04-19 17:22:00,36.0,17.0,30.06,West,273,9.0,26.0,45,0.00,,,0.00,,2013-04-19 23:22:00,
2013-04-19 17:32:00,36.0,17.0,30.06,WNW,288,6.0,14.0,46,0.00,,,0.00,,2013-04-19 23:32:00,
2013-04-19 17:42:00,36.0,17.0,30.06,WNW,288,6.0,14.0,46,0.00,,,0.00,,2013-04-19 23:42:00,
2013-04-19 17:52:00,37.0,16.0,30.06,WSW,255,10.0,30.0,42,0.00,,,0.00,,2013-04-19 23:52:00,
2013-04-19 18:02:00,37.0,16.0,30.06,WNW,287,15.0,27.0,41,0.00,,,0.00,,2013-04-20 00:02:00,
2013-04-19 18:12:00,37.0,16.0,30.06,WNW,287,15.0,27.0,41,0.00,,,0.00,,2013-04-20 00:12:00,
2013-04-19 18:21:00,37.0,16.0,30.05,NNW,331,3.0,19.0,42,0.00,,,0.00,,2013-04-20 00:21:00,
2013-04-19 18:32:00,37.0,16.0,30.05,NW,310,8.0,20.0,41,0.00,,,0.00,,2013-04-20 00:32:00,
2013-04-19 18:41:00,37.0,16.0,30.05,NW,310,8.0,20.0,41,0.00,,,0.00,,2013-04-20 00:41:00,
2013-04-19 18:52:00,38.0,16.0,30.05,West,271,8.0,15.0,40,0.00,,,0.00,,2013-04-20 00:52:00,
2013-04-19 19:01:00,37.0,16.0,30.05,WNW,294,8.0,24.0,41,0.00,,,0.00,,2013-04-20 01:01:00,
2013-04-19 19:11:00,37.0,16.0,30.05,WNW,294,8.0,24.0,41,0.00,,,0.00,,2013-04-20 01:11:00,
2013-04-19 19:21:00,36.0,16.0,30.04,NNE,20,1.0,13.0,44,0.00,,,0.00,,2013-04-20 01:21:00,
2013-04-19 19:32:00,36.0,16.0,30.04,WNW,291,1.0,6.0,44,0.00,,,0.00,,2013-04-20 01:32:00,
2013-04-19 19:42:00,36.0,16.0,30.04,WNW,291,1.0,6.0,44,0.00,,,0.00,,2013-04-20 01:42:00,
2013-04-19 19:52:00,35.0,16.0,30.04,WNW,297,5.0,10.0,45,0.00,,,0.00,,2013-04-20 01:52:00,
2013-04-19 20:01:00,35.0,17.0,30.04,SE,140,1.0,4.0,47,0.00,,,0.00,,2013-04-20 02:01:00,
2013-04-19 20:11:00,35.0,17.0,30.04,SE,140,1.0,4.0,47,0.00,,,0.00,,2013-04-20 02:11:00,
2013-04-19 20:21:00,34.0,16.0,30.04,East,89,3.0,5.0,48,0.00,,,0.00,,2013-04-20 02:21:00,
2013-04-19 20:32:00,35.0,17.0,30.03,SSE,156,5.0,13.0,47,0.00,,,0.00,,2013-04-20 02:32:00,
2013-04-19 20:42:00,35.0,17.0,30.03,SSE,156,5.0,13.0,47,0.00,,,0.00,,2013-04-20 02:42:00,
2013-04-19 20:52:00,35.0,17.0,30.04,SE,146,1.0,13.0,48,0.00,,,0.00,,2013-04-20 02:52:00,
2013-04-19 21:01:00,34.0,19.0,30.04,SSE,159,0.0,9.0,53,0.00,,,0.00,,2013-04-20 03:01:00,
2013-04-19 21:11:00,34.0,19.0,30.04,SSE,159,0.0,9.0,53,0.00,,,0.00,,2013-04-20 03:11:00,
2013-04-19 21:21:00,33.0,18.0,30.04,SE,140,0.0,3.0,54,0.00,,,0.00,,2013-04-20 03:21:00,
2013-04-19 21:33:00,33.0,17.0,30.05,NW,322,1.0,6.0,51,0.00,,,0.00,,2013-04-20 03:33:00,
2013-04-19 21:43:00,33.0,17.0,30.05,NW,322,1.0,6.0,51,0.00,,,0.00,,2013-04-20 03:43:00,
2013-04-19 21:53:00,33.0,17.0,30.05,WNW,290,0.0,2.0,52,0.00,,,0.00,,2013-04-20 03:53:00,
2013-04-19 22:03:00,33.0,18.0,30.05,ESE,103,3.0,6.0,53,0.00,,,0.00,,2013-04-20 04:03:00,
2013-04-19 22:12:00,33.0,18.0,30.05,ESE,103,3.0,6.0,53,0.00,,,0.00,,2013-04-20 04:12:00,
2013-04-19 22:23:00,34.0,19.0,30.04,West,279,2.0,11.0,53,0.00,,,0.00,,2013-04-20 04:23:00,
2013-04-19 22:32:00,34.0,19.0,30.03,NW,312,6.0,21.0,53,0.00,,,0.00,,2013-04-20 04:32:00,
2013-04-19 22:42:00,34.0,19.0,30.03,NW,312,6.0,21.0,53,0.00,,,0.00,,2013-04-20 04:42:00,
2013-04-19 22:52:00,34.0,19.0,30.03,WNW,294,9.0,24.0,53,0.00,,,0.00,,2013-04-20 04:52:00,
2013-04-19 23:02:00,34.0,18.0,30.02,NW,314,13.0,20.0,52,0.00,,,0.00,,2013-04-20 05:02:00,
2013-04-19 23:12:00,34.0,18.0,30.02,NW,314,13.0,20.0,52,0.00,,,0.00,,2013-04-20 05:12:00,
2013-04-19 23:22:00,34.0,19.0,30.02,West,278,11.0,18.0,53,0.00,,,0.00,,2013-04-20 05:22:00,
2013-04-19 23:32:00,34.0,19.0,30.01,West,278,9.0,20.0,54,0.00,,,0.00,,2013-04-20 05:32:00,
2013-04-19 23:42:00,34.0,19.0,30.01,West,278,9.0,20.0,54,0.00,,,0.00,,2013-04-20 05:42:00,
2013-04-19 23:52:00,34.0,20.0,30.01,WNW,295,1.0,13.0,55,0.00,,,0.00,,2013-04-20 05:52:00,